W0DXV Weather Reports


Display with metric or nautical units.
time (UTC)temp
F
wind
direction
speed
MPH
gust
MPH
rain 1hr
in
rain 24hr
in
rain mn
in
humidity
%
barometer
mb
20260505085917 46 275 0.0 0.0 0.00 0.00 0.00 94 1011.6
20260505085415 45 275 0.0 0.0 0.00 0.00 0.00 94 1011.3
20260505084913 46 310 0.0 0.0 0.00 0.00 0.00 94 1011.7
20260505084411 46 311 0.0 0.0 0.00 0.00 0.00 93 1011.5
20260505083909 46 312 0.0 1.0 0.00 0.00 0.00 93 1011.3
20260505083406 46 306 1.0 1.0 0.00 0.00 0.00 93 1011.3
20260505082901 47 252 0.0 0.0 0.00 0.00 0.00 93 1011.2
20260505082357 47 251 0.0 0.0 0.00 0.00 0.00 93 1011.2
20260505081854 47 251 0.0 0.0 0.00 0.00 0.00 93 1011.2
20260505081351 46 251 0.0 0.0 0.00 0.00 0.00 93 1011.1
20260505080848 46 251 0.0 0.0 0.00 0.00 0.00 92 1010.8
20260505080344 46 251 0.0 0.0 0.00 0.00 0.00 91 1011.0
20260505075840 47 252 0.0 0.0 0.00 0.00 0.00 91 1011.0
20260505075337 47 252 0.0 0.0 0.00 0.00 0.00 91 1011.1
20260505074834 47 251 0.0 0.0 0.00 0.00 0.00 90 1011.1
20260505074331 48 252 0.0 0.0 0.00 0.00 0.00 90 1010.9
20260505073828 48 251 0.0 0.0 0.00 0.00 0.00 90 1011.0
20260505073326 48 251 0.0 0.0 0.00 0.00 0.00 89 1010.9
20260505072823 48 251 0.0 0.0 0.00 0.00 0.00 89 1011.1
20260505072319 48 252 0.0 0.0 0.00 0.00 0.00 89 1011.0
20260505071815 48 251 0.0 0.0 0.00 0.00 0.00 89 1010.7
20260505071312 48 252 0.0 0.0 0.00 0.00 0.00 88 1010.8
20260505070810 48 252 0.0 0.0 0.00 0.00 0.00 88 1010.8
20260505070306 48 252 0.0 0.0 0.00 0.00 0.00 88 1010.7
20260505065801 48 251 0.0 0.0 0.00 0.00 0.00 88 1010.6
20260505065258 48 251 0.0 0.0 0.00 0.00 0.00 87 1010.5
20260505064755 49 251 0.0 0.0 0.00 0.00 0.00 87 1010.6
20260505064252 49 251 0.0 0.0 0.00 0.00 0.00 86 1010.6
20260505063750 49 251 0.0 0.0 0.00 0.00 0.00 86 1010.7
20260505063246 49 251 0.0 0.0 0.00 0.00 0.00 86 1010.8
20260505062743 50 251 0.0 0.0 0.00 0.00 0.00 85 1010.9
20260505062241 50 251 0.0 0.0 0.00 0.00 0.00 84 1010.7
20260505061737 51 251 0.0 0.0 0.00 0.00 0.00 83 1010.9
20260505061235 51 251 0.0 0.0 0.00 0.00 0.00 82 1010.6
20260505060732 51 252 0.0 0.0 0.00 0.00 0.00 82 1010.9
20260505060229 52 256 0.0 0.0 0.00 0.00 0.00 81 1010.7
20260505055724 51 200 0.0 0.0 0.00 0.00 0.00 81 1010.7
20260505055221 51 202 0.0 0.0 0.00 0.00 0.00 83 1010.8
20260505054719 51 202 0.0 0.0 0.00 0.00 0.00 83 1010.8
20260505054216 51 202 0.0 0.0 0.00 0.00 0.00 84 1011.0
20260505053715 52 202 0.0 0.0 0.00 0.00 0.00 84 1010.8
20260505053210 52 202 0.0 0.0 0.00 0.00 0.00 84 1010.7
20260505052708 52 202 0.0 0.0 0.00 0.00 0.00 84 1010.8
20260505052204 52 202 0.0 0.0 0.00 0.00 0.00 84 1010.7
20260505051702 52 202 0.0 0.0 0.00 0.00 0.00 84 1010.9
20260505051200 52 202 0.0 0.0 0.00 0.00 0.00 83 1010.9
20260505050657 52 202 0.0 0.0 0.00 0.00 0.00 83 1010.8
20260505050155 51 202 0.0 0.0 0.00 0.00 0.00 82 1010.8
20260505041625 52 202 0.0 0.0 0.00 0.00 0.00 81 1011.1
20260505041122 52 202 0.0 0.0 0.00 0.00 0.00 79 1011.2
20260505040619 52 202 0.0 0.0 0.00 0.00 0.00 79 1011.0
20260505040116 52 202 0.0 0.0 0.00 0.00 0.00 79 1010.9
20260505035613 52 202 0.0 0.0 0.00 0.00 0.00 79 1011.0
20260505035109 52 202 0.0 0.0 0.00 0.00 0.00 78 1011.1
20260505034606 52 202 0.0 0.0 0.00 0.00 0.00 78 1010.9
20260505034103 52 202 0.0 0.0 0.00 0.00 0.00 78 1010.8
20260505033559 52 202 0.0 0.0 0.00 0.00 0.00 78 1010.9
20260505033058 53 202 0.0 0.0 0.00 0.00 0.00 77 1011.0
20260505032555 53 202 0.0 0.0 0.00 0.00 0.00 76 1010.9
20260505032051 53 202 0.0 0.0 0.00 0.00 0.00 75 1011.1
20260505031549 53 202 0.0 0.0 0.00 0.00 0.00 74 1010.9
20260505031045 54 202 0.0 0.0 0.00 0.00 0.00 73 1010.8
20260505030542 54 202 0.0 0.0 0.00 0.00 0.00 74 1011.0
20260505030038 54 202 0.0 0.0 0.00 0.00 0.00 74 1011.2
20260505025534 54 202 0.0 0.0 0.00 0.00 0.00 73 1011.1
20260505025033 55 202 0.0 0.0 0.00 0.00 0.00 73 1011.0
20260505024530 55 202 0.0 0.0 0.00 0.00 0.00 72 1011.0
20260505024027 55 202 0.0 0.0 0.00 0.00 0.00 72 1011.0
20260505023524 55 202 0.0 0.0 0.00 0.00 0.00 71 1011.0
20260505023021 55 202 0.0 0.0 0.00 0.00 0.00 72 1011.0
20260505022519 56 202 0.0 0.0 0.00 0.00 0.00 71 1011.0
20260505022016 56 202 0.0 0.0 0.00 0.00 0.00 70 1011.0
20260505021512 56 202 0.0 0.0 0.00 0.00 0.00 69 1010.8
20260505021009 56 202 0.0 0.0 0.00 0.00 0.00 69 1010.9
20260505020503 57 202 0.0 0.0 0.00 0.00 0.00 68 1011.0
20260505020000 57 202 0.0 0.0 0.00 0.00 0.00 67 1010.9
20260505015458 57 202 0.0 0.0 0.00 0.00 0.00 66 1010.8
20260505014955 57 202 0.0 0.0 0.00 0.00 0.00 66 1010.9
20260505014452 58 202 0.0 0.0 0.00 0.00 0.00 65 1011.0
20260505013949 58 202 0.0 0.0 0.00 0.00 0.00 64 1010.9
20260505013446 59 202 0.0 0.0 0.00 0.00 0.00 63 1010.9
20260505012943 59 202 0.0 0.0 0.00 0.00 0.00 63 1010.7
20260505012441 59 202 0.0 0.0 0.00 0.00 0.00 62 1010.6
20260505011938 60 202 0.0 0.0 0.00 0.00 0.00 62 1010.4
20260505011434 60 202 0.0 0.0 0.00 0.00 0.00 61 1010.5
20260505010931 61 202 0.0 0.0 0.00 0.00 0.00 60 1010.4
20260505010426 61 202 0.0 0.0 0.00 0.00 0.00 60 1010.2
20260505005922 62 202 0.0 0.0 0.00 0.00 0.00 59 1010.0
20260505005419 62 202 0.0 0.0 0.00 0.00 0.00 58 1010.0
20260505004917 63 202 0.0 0.0 0.00 0.00 0.00 55 1010.1
20260505004413 64 202 0.0 0.0 0.00 0.00 0.00 54 1010.1
20260505003910 64 202 0.0 0.0 0.00 0.00 0.00 53 1010.0
20260505003408 65 202 0.0 0.0 0.00 0.00 0.00 51 1009.9
20260505002903 66 202 0.0 0.0 0.00 0.00 0.00 45 1010.0
20260505002400 66 202 0.0 0.0 0.00 0.00 0.00 41 1009.8
20260505001859 67 202 0.0 0.0 0.00 0.00 0.00 41 1009.8
20260505001355 68 201 0.0 0.0 0.00 0.00 0.00 41 1010.0
20260505000853 68 248 0.0 0.0 0.00 0.00 0.00 40 1010.1
20260505000351 69 248 0.0 0.0 0.00 0.00 0.00 39 1009.9
20260504235847 69 248 0.0 0.0 0.00 0.00 0.00 37 1009.5
20260504235344 69 248 0.0 0.0 0.00 0.00 0.00 42 1009.8
20260504234840 70 248 0.0 0.0 0.00 0.00 0.00 44 1009.5
20260504234338 70 248 0.0 0.0 0.00 0.00 0.00 39 1009.4
20260504233835 71 248 0.0 0.0 0.00 0.00 0.00 38 1009.4
20260504233330 71 248 0.0 0.0 0.00 0.00 0.00 38 1009.2
20260504232828 72 248 0.0 0.0 0.00 0.00 0.00 37 1009.6
20260504232324 72 248 0.0 0.0 0.00 0.00 0.00 37 1009.3
20260504231821 73 248 0.0 0.0 0.00 0.00 0.00 37 1009.4
20260504231318 73 248 0.0 1.0 0.00 0.00 0.00 36 1009.3
20260504230814 73 249 0.0 0.0 0.00 0.00 0.00 36 1009.2
20260504230312 74 249 0.0 0.0 0.00 0.00 0.00 37 1009.0
20260504225811 74 224 1.0 1.0 0.00 0.00 0.00 36 1009.2
20260504225306 74 221 0.0 0.0 0.00 0.00 0.00 38 1009.2
20260504224804 74 260 0.0 0.0 0.00 0.00 0.00 35 1009.3
20260504224301 74 260 0.0 0.0 0.00 0.00 0.00 34 1009.2
20260504223757 74 240 0.0 0.0 0.00 0.00 0.00 36 1009.2
20260504223253 74 251 0.0 1.0 0.00 0.00 0.00 37 1009.2
20260504222750 74 218 0.0 1.0 0.00 0.00 0.00 36 1009.1
20260504222247 75 241 0.0 0.0 0.00 0.00 0.00 40 1009.3
20260504221744 75 236 1.0 2.0 0.00 0.00 0.00 37 1009.2
20260504221236 75 272 1.0 1.0 0.00 0.00 0.00 33 1009.2
20260504220732 76 250 0.0 0.0 0.00 0.00 0.00 36 1009.4
20260504220230 75 222 2.0 2.0 0.00 0.00 0.00 34 1009.4
20260504215727 76 246 0.0 1.0 0.00 0.00 0.00 37 1009.4
20260504215223 76 259 0.0 0.0 0.00 0.00 0.00 33 1009.2
20260504214719 76 245 1.0 1.0 0.00 0.00 0.00 31 1009.3
20260504214216 76 242 1.0 1.0 0.00 0.00 0.00 38 1009.3
20260504213713 76 242 1.0 1.0 0.00 0.00 0.00 33 1009.5
20260504213209 76 230 2.0 2.0 0.00 0.00 0.00 34 1009.4
20260504212706 77 260 1.0 1.0 0.00 0.00 0.00 34 1009.3
20260504212203 77 229 1.0 1.0 0.00 0.00 0.00 33 1009.5
20260504211700 77 234 1.0 1.0 0.00 0.00 0.00 37 1009.5
20260504211156 77 223 0.0 0.0 0.00 0.00 0.00 34 1009.4
20260504210654 77 263 1.0 1.0 0.00 0.00 0.00 33 1009.3
20260504210150 77 245 0.0 1.0 0.00 0.00 0.00 34 1009.5
20260504205648 77 268 2.0 2.0 0.00 0.00 0.00 33 1009.4
20260504205145 78 228 2.0 2.0 0.00 0.00 0.00 35 1009.5
20260504204643 78 239 0.0 0.0 0.00 0.00 0.00 34 1009.6
20260504204142 78 230 2.0 2.0 0.00 0.00 0.00 34 1009.8
20260504203640 79 238 3.0 3.0 0.00 0.00 0.00 33 1009.7
20260504203137 80 266 1.0 1.0 0.00 0.00 0.00 33 1009.7
20260504202632 79 290 1.0 2.0 0.00 0.00 0.00 34 1009.8
20260504202129 79 233 3.0 3.0 0.00 0.00 0.00 34 1009.8
20260504201626 79 246 1.0 1.0 0.00 0.00 0.00 36 1010.0
20260504201124 79 278 1.0 2.0 0.00 0.00 0.00 33 1009.8
20260504200620 80 231 2.0 2.0 0.00 0.00 0.00 35 1010.0
20260504200117 81 25 1.0 1.0 0.00 0.00 0.00 35 1009.8
20260504195613 80 97 2.0 2.0 0.00 0.00 0.00 32 1010.0
20260504195109 79 236 2.0 2.0 0.00 0.00 0.00 35 1010.1
20260504194606 79 265 4.0 5.0 0.00 0.00 0.00 34 1010.3
20260504194102 80 239 1.0 1.0 0.00 0.00 0.00 33 1010.1
20260504193558 79 277 2.0 2.0 0.00 0.00 0.00 35 1010.2
20260504193057 80 336 1.0 2.0 0.00 0.00 0.00 34 1010.4
20260504192555 79 251 1.0 1.0 0.00 0.00 0.00 36 1010.4
20260504192053 80 66 2.0 3.0 0.00 0.00 0.00 34 1010.5
20260504191551 80 270 2.0 2.0 0.00 0.00 0.00 36 1010.7
20260504191046 80 140 0.0 1.0 0.00 0.00 0.00 32 1010.5
20260504190543 79 266 1.0 1.0 0.00 0.00 0.00 34 1010.7
20260504190039 79 242 2.0 2.0 0.00 0.00 0.00 34 1010.8
20260504185536 79 214 1.0 1.0 0.00 0.00 0.00 34 1010.9
20260504185033 79 120 3.0 3.0 0.00 0.00 0.00 32 1010.9
20260504184528 80 352 1.0 2.0 0.00 0.00 0.00 34 1010.9
20260504184023 80 232 1.0 1.0 0.00 0.00 0.00 35 1010.9
20260504183521 79 251 1.0 1.0 0.00 0.00 0.00 33 1011.0
20260504183019 78 289 1.0 2.0 0.00 0.00 0.00 33 1011.1
20260504182515 78 236 1.0 1.0 0.00 0.00 0.00 34 1011.2
20260504182013 78 188 1.0 1.0 0.00 0.00 0.00 32 1011.1
20260504181510 78 243 2.0 2.0 0.00 0.00 0.00 33 1011.3
20260504181009 78 240 2.0 2.0 0.00 0.00 0.00 34 1011.4
20260504180507 78 278 1.0 1.0 0.00 0.00 0.00 32 1011.0
20260504180005 79 233 1.0 1.0 0.00 0.00 0.00 33 1011.3
20260504175502 78 281 1.0 1.0 0.00 0.00 0.00 34 1011.3
20260504174959 77 263 1.0 1.0 0.00 0.00 0.00 33 1011.3
20260504174457 77 262 0.0 0.0 0.00 0.00 0.00 34 1011.2
20260504173954 77 281 1.0 2.0 0.00 0.00 0.00 37 1011.5
20260504173450 78 256 2.0 2.0 0.00 0.00 0.00 34 1011.4
20260504172948 76 259 1.0 1.0 0.00 0.00 0.00 33 1011.5
20260504172443 76 239 1.0 2.0 0.00 0.00 0.00 34 1011.6
20260504171940 76 269 1.0 1.0 0.00 0.00 0.00 38 1011.7
20260504171437 75 34 2.0 2.0 0.00 0.00 0.00 36 1011.4
20260504170934 76 34 5.0 5.0 0.00 0.00 0.00 35 1011.9
20260504170430 76 265 1.0 1.0 0.00 0.00 0.00 35 1011.9
20260504160349 75 61 2.0 3.0 0.00 0.00 0.00 37 1013.0
20260504150814 70 184 1.0 1.0 0.00 0.00 0.00 42 1013.4
20260504150311 70 275 1.0 1.0 0.00 0.00 0.00 44 1013.3
20260504141241 63 281 1.0 1.0 0.00 0.00 0.00 57 1013.1
20260504140737 64 47 2.0 2.0 0.00 0.00 0.00 59 1013.3
20260504140233 64 338 1.0 2.0 0.00 0.00 0.00 60 1013.3
20260504130702 57 231 0.0 0.0 0.00 0.00 0.00 71 1013.1
20260504130158 56 234 0.0 1.0 0.00 0.00 0.00 70 1013.2
20260504120122 49 252 0.0 0.0 0.00 0.00 0.00 84 1013.1
20260504110549 38 288 0.0 0.0 0.00 0.00 0.00 99 1013.0
20260504100511 38 288 0.0 0.0 0.00 0.00 0.00 98 1013.0